Regional Weather Roundup
Issued by NWS

Home | Current Version | Previous Version | Graphics & Text | Print | Product List | Glossary On
Versions: 1 2 3 4 5 6 7 8 9 10 11 12 13 14 15 16 17 18 19 20 21 22 23 24 25 26 27
000
ASUS45 KBOU 280707
RWRCO

WEATHER ROUNDUP FOR COLORADO
NATIONAL WEATHER SERVICE DENVER/BOULDER CO
100 AM MDT WED JUN 28 2017

NOTE: "FAIR" INDICATES FEW OR NO CLOUDS BELOW 12000 FEET WITH NO
SIGNIFICANT WEATHER AND/OR OBSTRUCTIONS TO VISIBILITY.

COZ001>005-013-030-031-280800-
...NORTHWEST COLORADO...

CITY           SKY/WX    TMP DP  RH WIND       PRES   REMARKS
CRAIG          FAIR      55  30  38 SW3       30.03S
HAYDEN         FAIR      57  30  35 S6        30.06R
MEEKER         FAIR      60  37  42 VRB5      30.04F
RABBIT EARS PA FAIR      48  30  49 W10       30.31F
STEAMBOAT SPGS FAIR      54  39  57 CALM      30.07S
WALDEN         FAIR      45  34  65 SE6       30.15F
$$

COZ006>008-011-280800-
...WEST CENTRAL VALLEYS...

CITY           SKY/WX    TMP DP  RH WIND       PRES   REMARKS
GRAND JUNCTION FAIR      83  30  14 N9        29.87R
MONTROSE       FAIR      64  21  19 S9        29.96R
EAGLE          FAIR      59  31  34 E7        30.06R
RIFLE          FAIR      74  25  16 NW7       29.97R
DELTA          FAIR      67  21  17 NE7       29.91R
NUCLA          NOT AVBL
$$

COZ017>023-064>068-280800-
...SOUTHWEST COLORADO...

CITY           SKY/WX    TMP DP  RH WIND       PRES   REMARKS
DURANGO        FAIR      57  22  25 CALM      30.05R
CORTEZ         FAIR      56  25  30 NE3       30.00R
PAGOSA SPRINGS FAIR      53  21  28 CALM      30.13S
TELLURIDE      FAIR      55  16  21 SE7       30.26S
WOLF CREEK PAS FAIR      50   7  17 SW9       30.50S
$$

COZ009-010-012-014-032>034-037-058>063-280800-
...CENTRAL COLORADO...

CITY           SKY/WX    TMP DP  RH WIND       PRES   REMARKS
ASPEN          FAIR      51  29  42 SW7       30.12R
BUENA VISTA    FAIR      56  22  26 NW7       30.12S
COPPER MTN     FAIR      52  27  37 NW7       30.43S
BERTHOUD PASS  FAIR      41  30  65 W20G25    30.44F
COTTONWOOD PAS FAIR      63   9  12 W8        30.26F
GUNNISON       FAIR      49  33  54 NE5       30.13R
KREMMLING      FAIR      59  37  44 CALM      30.10F
LEADVILLE      FAIR      43  22  43 NE8       30.26S
MONARCH PASS   FAIR      50  14  23 SW15      30.53F
SALIDA         FAIR      64  19  17 W7        30.15S
SUNLIGHT       FAIR      52  27  37 W8G17     30.37S
WILKERSON PASS FAIR      54  16  22 NW6       30.40S
$$

COZ069>075-280800-
...SAN LUIS VALLEY/SANGRE DE CRISTO MOUNTAINS...

CITY           SKY/WX    TMP DP  RH WIND       PRES   REMARKS
ALAMOSA        FAIR      46  33  60 S8        30.09F
DEL NORTE      FAIR      56  23  28 W10       30.14F
LA VETA PASS   FAIR      55  23  28 MISG      30.40F
SAGUACHE       FAIR      61  19  20 N10       30.13S
$$

COZ035-036-038>040-280800-
...NORTHERN COLORADO FRONT RANGE...

CITY           SKY/WX    TMP DP  RH WIND       PRES   REMARKS
DENVER INTL AP FAIR      60  39  45 SE8       29.95R
DMNS CITY PARK   N/A     63  44  49 E12       29.94F
AURORA         PTCLDY    61  38  43 SW5       29.97R
FRONT RANGE AP FAIR      61  41  48 SE13      29.96R
ERIE MUNI ARPT FAIR      63  42  45 CALM      29.93R
BOULDER MUN AP FAIR      64  41  42 CALM      29.94R
CENTENNIAL     FAIR      63  38  39 SW3       29.98R
BROOMFIELD     FAIR      64  41  42 S3        29.96F
FORT COLLINS   FAIR      63  44  50 SW6       29.94R
LONGMONT       FAIR      61  44  54 NW6       29.95S
$$

COZ041-046-047-076>085-087-088-280800-
...PIKES PEAK/PALMER DIVIDE AND SOUTHERN FOOTHILLS...

CITY           SKY/WX    TMP DP  RH WIND       PRES   REMARKS
COLO. SPRINGS  FAIR      69  35  28 NW7       29.99R
A. F. ACADEMY  FAIR      62  34  35 NW6       30.02S
SCHRIEVER AFB  FAIR      64  34  33 N15G22    29.99R
CHEYENNE MTN   FAIR      68  31  25 N20G30    29.98S
ELLICOTT       FAIR     N/A N/A N/A NE17G26   29.95R
FALCON           N/A     62  32  33 N10       30.04S
FORT CARSON    FAIR      69  34  27 N12       29.95S
LIMON          FAIR      58  42  55 N7        29.94R
MONUMENT HILL  FAIR      52  34  50 CALM      30.07F
CANON CITY     CLEAR     73  30  20 S3        29.89S
WALSENBURG     FAIR      68  34  28 W8        29.94S
TRINIDAD       FAIR      70  44  39 W15       29.91S
$$

COZ042>045-048>051-090-091-280800-
...NORTHEAST COLORADO...

CITY           SKY/WX    TMP DP  RH WIND       PRES   REMARKS
GREELEY ARPT   FAIR      66  42  41 S3        29.91R
AKRON          FAIR      58  44  60 NW6       29.90R
BURLINGTON     FAIR      66  56  70 E8        29.83F
WRAY           FAIR      63  52  67 N7        29.81R
YUMA           FAIR      61  50  67 N9        29.86R
STERLING       FAIR      57  50  77 NW6       29.86R
HOLYOKE        NOT AVBL
FORT MORGAN    FAIR      60  44  54 N8        29.91S
$$

COZ086-089-092>099-280800-
...SOUTHEAST COLORADO...

CITY           SKY/WX    TMP DP  RH WIND       PRES   REMARKS
PUEBLO         FAIR      75  38  26 N18       29.83R
LA JUNTA       FAIR      74  48  39 W16       29.76R
LAMAR          FAIR      79  50  36 NE8       29.71R
SPRINGFIELD      N/A     70  52  52 S21       29.81F
$$




USA.gov is the U.S. government's official web portal to all federal, state and local government web resources and services.